[[{"header":{"parameterUnit":"m.s-1","parameterCategory":1,"la1":30.2991,"la2":30.254,"lo1":-89.0895,"lo2":-89.0444,"dy":0.0017,"dx":0.0017,"nx":28,"ny":28,"refTime":"2025-07-17T09:00:00:Z","depth":0,"parameterNumber":2,"parameterNumberName":"U-component_of_WINDS"},"data":[0,0,0,0,0,0,0,0,0,0,0,0,0,0,0,0,0,0,0,0,0,0,0,0,0,0,0,0,0,0,0,0,0,0,0,0,0,0,0,0,0,0,0,0,0,0,0,0,0,0,0,0,0,0,0,0,0,0,0.8024,0.8023,0,0.7955,0.7955,0.7954,0.7883,0.7882,0.7881,0.788,0.7811,0.781,0.7809,0,0,0,0,0,0,0,0,0,0,0,0,0,0.8092,0.8091,0.8024,0.8023,0.8022,0.7956,0.7955,0.7954,0.7883,0.7882,0.7881,0.788,0.7812,0.781,0.7809,0,0,0,0,0,0,0,0,0,0,0,0,0,0.8047,0.8091,0.8024,0.7979,0.7974,0.7956,0.7955,0.7953,0.7884,0.7882,0.7881,0.7879,0.7812,0.7811,0.7809,0.783,0,0,0.7805,0.7804,0,0,0,0,0,0,0,0,0.805,0.8045,0.7986,0.7982,0.7977,0.7926,0.7953,0.7912,0.7884,0.7918,0.788,0.7879,0.7851,0.7846,0.7837,0.7827,0.7824,0.7805,0.7804,0.7803,0.7803,0,0,0,0,0,0,0,0.8053,0.8047,0.7997,0.7986,0.798,0.7962,0.7954,0.7945,0.7894,0.7915,0.791,0.7903,0.7848,0.7838,0.7834,0.7823,0.7805,0.7804,0.7803,0.7802,0.7823,0.7824,0,0,0,0,0,0,0.8063,0.805,0.7999,0.7995,0.801,0.7962,0.7953,0.7944,0.7893,0.7884,0.7904,0.7899,0.7841,0.7836,0.7832,0.785,0.7803,0.7802,0.7801,0.7822,0.7823,0.7825,0,0,0,0,0,0,0.8065,0.8059,0.8002,0.8021,0.8012,0.7962,0.7953,0.7943,0.7933,0.7885,0.7875,0.7903,0.784,0.7834,0.783,0.7847,0.7801,0.78,0.782,0.7822,0.7824,0.7889,0,0,0,0,0,0,0.8067,0.806,0.8068,0.8022,0.8012,0.8002,0.7954,0.7943,0.7931,0.7925,0.7882,0.7873,0.7838,0.7833,0.7829,0.7844,0.7799,0.7818,0.7821,0.7823,0.7885,0.7893,0.79,0,0,0,0,0,0.807,0.809,0.8069,0.8063,0.802,0.8003,0.7997,0.7956,0.7933,0.794,0.7908,0.7875,0.7846,0.7833,0.7828,0.7843,0.7817,0.782,0.7823,0.7882,0.7892,0.79,0,0,0,0,0,0,0.814,0.8083,0.8059,0.8064,0.8039,0.7991,0.7998,0.7968,0.7948,0.7943,0.7893,0.7884,0.7886,0.7864,0.7851,0.7859,0.7827,0.7829,0.7873,0.7882,0.7889,0.7893,0.7798,0,0,0,0,0,0.8156,0.8146,0.8097,0.8107,0.8095,0.8049,0.804,0.801,0.7982,0.7971,0.7939,0.7913,0.7897,0.7889,0.7872,0.7882,0.787,0.789,0.7897,0.7904,0.7906,0.7907,0.7914,0.7835,0.7835,0.7835,0,0,0.8189,0.8156,0.8154,0.812,0.8097,0.8087,0.8041,0.8034,0.8026,0.797,0.7964,0.794,0.7907,0.7909,0.7909,0.7892,0.7925,0.7908,0.7913,0.7911,0.7911,0.7918,0.7925,0.7837,0.7837,0.7837,0,0,0.8244,0.8219,0.8223,0.8201,0.8166,0.8135,0.8136,0.8092,0.8073,0.8066,0.8023,0.8014,0.7989,0.7967,0.7952,0.7997,0.7964,0.7993,0.8031,0.8032,0.8039,0.8044,0.8058,0.8063,0.7996,0.7996,0.7996,0,0.8289,0.8274,0.823,0.8224,0.821,0.8158,0.8161,0.8141,0.8103,0.8094,0.8075,0.8041,0.8016,0.8011,0.8021,0.8012,0.801,0.7997,0.8041,0.8046,0.805,0.8063,0.8068,0.7999,0.7999,0.7998,0.7998,0,0.833,0.832,0.8328,0.8291,0.8277,0.8276,0.8231,0.8223,0.8194,0.8165,0.8157,0.8125,0.8099,0.8096,0.8069,0.8087,0.8077,0.8051,0.8017,0.8062,0.8073,0.8077,0.8004,0.8003,0.8002,0.8001,0,0,0.8427,0.8365,0.8368,0.835,0.8307,0.8298,0.8294,0.8268,0.8261,0.8237,0.8231,0.821,0.8185,0.8168,0.8137,0.8139,0.8174,0.8112,0.811,0.8123,0.8189,0.8208,0.8214,0.8152,0.8153,0.8154,0.8191,0,0.8473,0.8463,0.8422,0.8423,0.8412,0.8362,0.8359,0.8332,0.8304,0.829,0.826,0.8245,0.8213,0.8203,0.8202,0.817,0.8186,0.8167,0.8145,0.8145,0.8153,0.822,0.8241,0.8277,0.8195,0.8196,0.8196,0,0.8525,0.8502,0.8503,0.8458,0.8452,0.8449,0.8421,0.8409,0.8377,0.8356,0.8337,0.8303,0.8294,0.8264,0.8251,0.8239,0.8228,0.821,0.8211,0.8206,0.8172,0.8215,0.8288,0.8293,0.8203,0.8202,0.8202,0,0.8593,0.8563,0.8558,0.8544,0.8493,0.8491,0.847,0.8436,0.8423,0.8399,0.8389,0.8365,0.8351,0.8333,0.8292,0.8274,0.8283,0.825,0.8264,0.8265,0.8267,0.8268,0.8338,0.8264,0.8264,0.8264,0.8263,0,0.8647,0.8649,0.8587,0.8585,0.8584,0.8537,0.8538,0.8512,0.8482,0.8472,0.8428,0.842,0.8367,0.8353,0.8321,0.8314,0.8309,0.8291,0.8282,0.8294,0.8296,0.8285,0.828,0.8265,0.8265,0.8264,0.8264,0,0.8722,0.8682,0.8673,0.8624,0.8612,0.8614,0.8572,0.8567,0.8536,0.8524,0.8519,0.8471,0.8451,0.8409,0.8378,0.8356,0.8356,0.8342,0.8367,0.8361,0.8378,0.8376,0.8441,0.8447,0.8372,0.8373,0.8373,0,0.8759,0.8758,0.871,0.87,0.868,0.8665,0.8651,0.8604,0.8591,0.8553,0.8552,0.8529,0.8508,0.8479,0.844,0.8416,0.8399,0.8424,0.8395,0.8406,0.8397,0.8397,0.8395,0.843,0.8431,0.8432,0.8433,0,0.8827,0.8806,0.8788,0.8761,0.8746,0.8723,0.8698,0.8692,0.864,0.8627,0.8606,0.859,0.8557,0.8534,0.8504,0.8481,0.8447,0.8442,0.8444,0.8455,0.8469,0.8459,0.8382,0.8441,0.844,0.8439,0.8439,0.8438,0.8882,0.8878,0.8843,0.8823,0.8799,0.8776,0.8768,0.8736,0.8718,0.8688,0.8662,0.8643,0.8608,0.8564,0.8543,0.8527,0.851,0.8514,0.8514,0.8515,0.8519,0.8473,0.8521,0.8521,0.8521,0.8521,0.852,0,0.8946,0.892,0.8902,0.8868,0.8852,0.8823,0.8793,0.8781,0.8765,0.8736,0.8715,0.869,0.8667,0.8627,0.86,0.8595,0.8579,0.8589,0.8588,0.8583,0.8536,0.8536,0.8602,0.8602,0.8602,0.8602,0.8602,0.8602,0.8977,0.8969,0.8944,0.8923,0.8897,0.8878,0.8863,0.8841,0.8818,0.8792,0.8772,0.8746,0.8712,0.8682,0.8659,0.8647,0.8639,0.8654,0.8637,0.8594,0.8587,0.8579,0.8579,0.8653,0.8653,0.8685,0.8685,0.8685]},{"header":{"parameterUnit":"m.s-1","parameterCategory":1,"la1":30.2991,"la2":30.254,"lo1":-89.0895,"lo2":-89.0444,"dy":0.0017,"dx":0.0017,"nx":28,"ny":28,"refTime":"2025-07-17T09:00:00:Z","depth":0,"parameterNumber":3,"parameterNumberName":"V-component_of_WINDS"},"data":[0,0,0,0,0,0,0,0,0,0,0,0,0,0,0,0,0,0,0,0,0,0,0,0,0,0,0,0,0,0,0,0,0,0,0,0,0,0,0,0,0,0,0,0,0,0,0,0,0,0,0,0,0,0,0,0,0,0,5.6436,5.6437,0,5.6553,5.6555,5.6556,5.6504,5.6501,5.6498,5.6496,5.6608,5.6614,5.662,0,0,0,0,0,0,0,0,0,0,0,0,0,5.6157,5.6163,5.6436,5.6437,5.6439,5.6553,5.6555,5.6556,5.6504,5.6501,5.6497,5.6494,5.6607,5.6613,5.662,0,0,0,0,0,0,0,0,0,0,0,0,0,5.6277,5.6164,5.6435,5.6427,5.6427,5.6553,5.6555,5.6557,5.6505,5.6501,5.6497,5.6493,5.6604,5.6613,5.6621,5.676,0,0,5.6647,5.6651,0,0,0,0,0,0,0,0,5.627,5.6287,5.6427,5.6428,5.6428,5.651,5.6498,5.6624,5.6506,5.6475,5.6495,5.649,5.6579,5.6589,5.662,5.6765,5.677,5.6648,5.6653,5.6657,5.6659,0,0,0,0,0,0,0,5.6262,5.6281,5.6482,5.6429,5.643,5.6414,5.6426,5.6521,5.6549,5.6478,5.6474,5.6489,5.6578,5.6612,5.6622,5.6771,5.6648,5.6655,5.666,5.6664,5.7031,5.7035,0,0,0,0,0,0,5.6255,5.6275,5.6478,5.6485,5.6337,5.6422,5.6436,5.6488,5.6548,5.6554,5.6493,5.6486,5.66,5.6613,5.6626,5.6789,5.6657,5.6665,5.6669,5.7026,5.7032,5.7037,0,0,0,0,0,0,5.6249,5.6273,5.6473,5.6379,5.6404,5.6432,5.649,5.6492,5.6526,5.656,5.6564,5.6523,5.6597,5.6614,5.6726,5.6793,5.6668,5.6676,5.702,5.7028,5.7034,5.7119,0,0,0,0,0,0,5.6241,5.6272,5.6327,5.6381,5.6409,5.6575,5.6495,5.6498,5.6542,5.6535,5.6589,5.6594,5.6595,5.6714,5.6735,5.6802,5.6683,5.7015,5.7024,5.7032,5.711,5.7128,5.7143,0,0,0,0,0,5.6231,5.6346,5.633,5.6355,5.6479,5.6579,5.6594,5.6595,5.6548,5.6602,5.6622,5.6592,5.6782,5.6726,5.6749,5.682,5.701,5.7021,5.7031,5.7103,5.7124,5.7142,0,0,0,0,0,0,5.6297,5.6353,5.6336,5.6472,5.6521,5.657,5.6639,5.6619,5.6681,5.6671,5.6667,5.6679,5.6795,5.6818,5.6755,5.6954,5.6889,5.6904,5.6935,5.6956,5.6972,5.6963,5.669,0,0,0,0,0,5.6327,5.6407,5.645,5.6565,5.6591,5.6611,5.6654,5.665,5.67,5.672,5.6749,5.6797,5.6866,5.6912,5.6979,5.7113,5.7122,5.7173,5.7189,5.7203,5.7215,5.7284,5.7306,5.7071,5.7071,5.7071,0,0,5.6391,5.6431,5.6481,5.6579,5.6617,5.6695,5.6628,5.6715,5.6772,5.6732,5.684,5.6863,5.6915,5.7038,5.7093,5.7061,5.7282,5.7216,5.7226,5.7232,5.7297,5.7319,5.7339,5.7078,5.7077,5.7075,0,0,5.6546,5.6586,5.6685,5.6724,5.6782,5.6794,5.6818,5.6869,5.6883,5.6992,5.6962,5.7028,5.715,5.7187,5.7222,5.7388,5.7361,5.741,5.7494,5.7561,5.758,5.7596,5.7652,5.7673,5.7423,5.7423,5.7423,0,5.6616,5.6736,5.6737,5.6826,5.6868,5.6837,5.6935,5.6972,5.7048,5.7076,5.704,5.719,5.7223,5.7352,5.7392,5.7423,5.7446,5.7403,5.7578,5.7594,5.7609,5.7662,5.7684,5.7428,5.7428,5.7427,5.7427,0,5.6818,5.6902,5.6974,5.705,5.71,5.7193,5.7204,5.7254,5.7245,5.726,5.7368,5.7407,5.7479,5.7509,5.7501,5.7636,5.7614,5.7578,5.7511,5.7637,5.7687,5.7707,5.7436,5.7434,5.7433,5.7431,0,0,5.7019,5.7093,5.7119,5.7151,5.7212,5.7275,5.7364,5.7436,5.7478,5.7531,5.7603,5.7705,5.7671,5.7711,5.7706,5.7765,5.7889,5.7721,5.7722,5.7748,5.8036,5.8062,5.8086,5.7872,5.7876,5.788,5.8031,0,5.7176,5.7335,5.7337,5.7482,5.7556,5.7527,5.7604,5.7647,5.7663,5.7725,5.7741,5.7813,5.7764,5.7787,5.7845,5.7862,5.7947,5.7852,5.7936,5.7939,5.7922,5.8112,5.814,5.8281,5.8051,5.8054,5.8056,0,5.7381,5.7442,5.7595,5.7642,5.7673,5.7743,5.7807,5.7869,5.7915,5.7922,5.7965,5.7951,5.8037,5.7969,5.8086,5.8021,5.8056,5.8069,5.8074,5.8081,5.8004,5.8121,5.8326,5.8347,5.8088,5.8085,5.8083,0,5.7508,5.7628,5.7734,5.7763,5.7821,5.787,5.7896,5.7939,5.7981,5.8037,5.8063,5.8127,5.8162,5.821,5.8211,5.8162,5.8328,5.8261,5.8333,5.8333,5.8368,5.8365,5.858,5.8394,5.8394,5.8393,5.8393,0,5.7683,5.7776,5.7791,5.7856,5.7959,5.7958,5.8059,5.808,5.8118,5.8184,5.8162,5.8223,5.8223,5.8284,5.8286,5.838,5.8397,5.8401,5.84,5.8402,5.8401,5.8423,5.8413,5.8399,5.8398,5.8397,5.8396,0,5.7842,5.7856,5.7969,5.8015,5.8028,5.8101,5.8138,5.8198,5.8211,5.8294,5.8313,5.8332,5.8403,5.841,5.8492,5.8493,5.8606,5.8595,5.8591,5.8588,5.8658,5.8651,5.8892,5.8922,5.872,5.8722,5.8723,0,5.7951,5.8023,5.8076,5.8119,5.8148,5.8219,5.8261,5.8262,5.8307,5.8364,5.8416,5.8485,5.854,5.8654,5.8673,5.8735,5.8724,5.8804,5.8733,5.8731,5.8721,5.8716,5.8722,5.8817,5.882,5.8822,5.8823,0,5.8143,5.8145,5.821,5.8275,5.8327,5.8379,5.8426,5.8462,5.8468,5.8519,5.8592,5.8635,5.8719,5.8786,5.8846,5.8869,5.8846,5.8846,5.8865,5.8867,5.886,5.8861,5.8626,5.884,5.8838,5.8837,5.8836,5.8835,5.8278,5.8339,5.8385,5.8456,5.8492,5.8537,5.8595,5.8614,5.8676,5.8745,5.8741,5.8821,5.8862,5.894,5.8968,5.9027,5.9,5.9029,5.9036,5.9042,5.9048,5.8852,5.9039,5.9038,5.9038,5.9037,5.9037,0,5.8466,5.8494,5.8559,5.8627,5.8682,5.8658,5.8708,5.8755,5.8826,5.8867,5.8922,5.9004,5.9068,5.9092,5.9154,5.9197,5.9187,5.9213,5.9208,5.9213,5.9071,5.9046,5.9219,5.9219,5.9219,5.9219,5.9219,5.9219,5.857,5.867,5.8678,5.8795,5.8821,5.8901,5.8931,5.8971,5.9003,5.9096,5.9151,5.9166,5.9199,5.9263,5.9319,5.9324,5.9347,5.9376,5.9376,5.9242,5.9224,5.9206,5.9183,5.9382,5.9382,5.9513,5.9514,5.9515]}]]